| time (UTC) | temp F | wind direction | speed MPH | gust MPH | rain 1hr in | rain 24hr in | rain mn in | humidity % | barometer mb |
| 20260504182122 | 73 | 225 | 6.0 | 9.0 | 0.00 | 0.00 | 0.00 | 46 | 1009.1 |
| 20260504181122 | 74 | 280 | 6.0 | 15.0 | 0.00 | 0.00 | 0.00 | 43 | 1009.2 |
| 20260504180122 | 74 | 240 | 6.0 | 10.0 | 0.00 | 0.00 | 0.00 | 42 | 1009.2 |
| 20260504175122 | 73 | 262 | 6.0 | 10.0 | 0.00 | 0.00 | 0.00 | 42 | 1009.2 |
| 20260504174123 | 73 | 229 | 5.0 | 10.0 | 0.00 | 0.00 | 0.00 | 42 | 1009.2 |
| 20260504173122 | 73 | 162 | 7.0 | 10.0 | 0.00 | 0.00 | 0.00 | 41 | 1009.4 |
| 20260504172145 | 72 | 209 | 6.0 | 10.0 | 0.00 | 0.00 | 0.00 | 43 | 1009.7 |
| 20260504171121 | 73 | 195 | 6.0 | 11.0 | 0.00 | 0.00 | 0.00 | 44 | 1009.9 |
| 20260504170142 | 71 | 260 | 5.0 | 12.0 | 0.00 | 0.00 | 0.00 | 44 | 1009.9 |
| 20260504160122 | 71 | 272 | 7.0 | 10.0 | 0.00 | 0.00 | 0.00 | 41 | 1010.6 |
| 20260504151124 | 69 | 244 | 5.0 | 10.0 | 0.00 | 0.00 | 0.00 | 44 | 1011.4 |
| 20260504150121 | 68 | 244 | 7.0 | 13.0 | 0.00 | 0.00 | 0.00 | 44 | 1011.4 |
| 20260504141123 | 67 | 274 | 5.0 | 9.0 | 0.00 | 0.00 | 0.00 | 49 | 1011.6 |
| 20260504140122 | 66 | 275 | 6.0 | 12.0 | 0.00 | 0.00 | 0.00 | 49 | 1011.6 |
| 20260504130122 | 62 | 255 | 7.0 | 11.0 | 0.00 | 0.00 | 0.00 | 55 | 1012.2 |
| 20260504120143 | 58 | 244 | 5.0 | 10.0 | 0.00 | 0.00 | 0.00 | 63 | 1012.5 |
| 20260504110142 | 53 | 230 | 3.0 | 7.0 | 0.00 | 0.00 | 0.00 | 68 | 1012.5 |
| 20260504100122 | 48 | 252 | 2.0 | 5.0 | 0.00 | 0.00 | 0.00 | 68 | 1012.2 |
| 20260504090121 | 50 | 246 | 3.0 | 5.0 | 0.00 | 0.00 | 0.00 | 60 | 1011.9 |
| 20260504081124 | 51 | 261 | 3.0 | 6.0 | 0.00 | 0.00 | 0.00 | 59 | 1011.6 |
| 20260504080124 | 51 | 264 | 4.0 | 11.0 | 0.00 | 0.00 | 0.00 | 59 | 1011.6 |
| 20260504070122 | 51 | 267 | 3.0 | 6.0 | 0.00 | 0.00 | 0.00 | 58 | 1011.2 |
| 20260504060122 | 50 | 243 | 3.0 | 6.0 | 0.00 | 0.00 | 0.00 | 59 | 1011.2 |
| 20260504050121 | 50 | 271 | 2.0 | 5.0 | 0.00 | 0.00 | 0.00 | 61 | 1011.0 |
| 20260504045121 | 50 | 262 | 2.0 | 4.0 | 0.00 | 0.00 | 0.00 | 61 | 1011.0 |
| 20260504044122 | 49 | 273 | 2.0 | 4.0 | 0.00 | 0.00 | 0.00 | 62 | 1010.9 |
| 20260504043121 | 49 | 250 | 2.0 | 4.0 | 0.00 | 0.00 | 0.00 | 63 | 1010.8 |
| 20260504042123 | 48 | 255 | 2.0 | 4.0 | 0.00 | 0.00 | 0.00 | 64 | 1010.7 |
| 20260504041121 | 47 | 260 | 1.0 | 2.0 | 0.00 | 0.00 | 0.00 | 65 | 1010.8 |
| 20260504040121 | 47 | 269 | 1.0 | 3.0 | 0.00 | 0.00 | 0.00 | 65 | 1010.8 |
| 20260504035121 | 47 | 180 | 0.0 | 0.0 | 0.00 | 0.00 | 0.00 | 64 | 1010.7 |
| 20260504034121 | 47 | 225 | 0.0 | 3.0 | 0.00 | 0.00 | 0.00 | 63 | 1010.7 |
| 20260504033121 | 47 | 218 | 0.0 | 2.0 | 0.00 | 0.00 | 0.00 | 62 | 1010.6 |
| 20260504032142 | 48 | 180 | 0.0 | 0.0 | 0.00 | 0.00 | 0.00 | 61 | 1010.6 |
| 20260504031121 | 48 | 258 | 0.0 | 2.0 | 0.00 | 0.00 | 0.00 | 60 | 1010.5 |
| 20260504030121 | 48 | 225 | 0.0 | 0.0 | 0.00 | 0.00 | 0.00 | 59 | 1010.5 |
| 20260504025121 | 48 | 180 | 0.0 | 0.0 | 0.00 | 0.00 | 0.00 | 59 | 1010.5 |
| 20260504024122 | 48 | 241 | 1.0 | 8.0 | 0.00 | 0.00 | 0.00 | 58 | 1010.6 |
| 20260504023121 | 48 | 212 | 0.0 | 3.0 | 0.00 | 0.00 | 0.00 | 60 | 1010.6 |
| 20260504022122 | 48 | 203 | 0.0 | 0.0 | 0.00 | 0.00 | 0.00 | 59 | 1010.6 |
| 20260504021122 | 48 | 180 | 0.0 | 0.0 | 0.00 | 0.00 | 0.00 | 59 | 1010.6 |
| 20260504020122 | 48 | 203 | 0.0 | 0.0 | 0.00 | 0.00 | 0.00 | 56 | 1010.6 |
| 20260504015123 | 49 | 203 | 0.0 | 0.0 | 0.00 | 0.00 | 0.00 | 55 | 1010.5 |
| 20260504014122 | 50 | 338 | 0.0 | 0.0 | 0.00 | 0.00 | 0.00 | 53 | 1010.4 |
| 20260504013124 | 52 | 23 | 0.0 | 0.0 | 0.00 | 0.00 | 0.00 | 48 | 1010.2 |
| 20260504012124 | 52 | 90 | 0.0 | 0.0 | 0.00 | 0.00 | 0.00 | 48 | 1010.1 |
| 20260504011124 | 52 | 203 | 0.0 | 0.0 | 0.00 | 0.00 | 0.00 | 48 | 1010.0 |
| 20260504010121 | 53 | 270 | 0.0 | 0.0 | 0.00 | 0.00 | 0.00 | 47 | 1009.8 |
| 20260504005121 | 53 | 287 | 0.0 | 2.0 | 0.00 | 0.00 | 0.00 | 45 | 1009.8 |
| 20260504004121 | 54 | 291 | 1.0 | 2.0 | 0.00 | 0.00 | 0.00 | 44 | 1009.6 |
| 20260504003122 | 55 | 260 | 0.0 | 3.0 | 0.00 | 0.00 | 0.00 | 43 | 1009.5 |
| 20260504002121 | 56 | 283 | 1.0 | 3.0 | 0.00 | 0.00 | 0.00 | 41 | 1009.2 |
| 20260504001125 | 56 | 284 | 2.0 | 4.0 | 0.00 | 0.00 | 0.00 | 40 | 1009.2 |
| 20260504000145 | 57 | 293 | 3.0 | 5.0 | 0.00 | 0.00 | 0.00 | 39 | 1009.2 |
| 20260503235124 | 57 | 296 | 3.0 | 7.0 | 0.00 | 0.00 | 0.00 | 38 | 1009.0 |
| 20260503234121 | 58 | 302 | 4.0 | 8.0 | 0.00 | 0.00 | 0.00 | 37 | 1008.8 |
| 20260503233121 | 58 | 310 | 5.0 | 8.0 | 0.00 | 0.00 | 0.00 | 37 | 1008.7 |
| 20260503232121 | 58 | 315 | 5.0 | 10.0 | 0.00 | 0.00 | 0.00 | 36 | 1008.7 |
| 20260503231121 | 59 | 305 | 5.0 | 11.0 | 0.00 | 0.00 | 0.00 | 36 | 1008.6 |
| 20260503230121 | 59 | 317 | 5.0 | 11.0 | 0.00 | 0.00 | 0.00 | 36 | 1008.6 |
| 20260503225127 | 59 | 316 | 6.0 | 10.0 | 0.00 | 0.00 | 0.00 | 35 | 1008.6 |
| 20260503224126 | 59 | 305 | 7.0 | 12.0 | 0.00 | 0.00 | 0.00 | 34 | 1008.5 |
| 20260503223124 | 59 | 291 | 5.0 | 13.0 | 0.00 | 0.00 | 0.00 | 34 | 1008.2 |
| 20260503222123 | 60 | 293 | 6.0 | 12.0 | 0.00 | 0.00 | 0.00 | 34 | 1008.5 |
| 20260503221122 | 60 | 302 | 8.0 | 13.0 | 0.00 | 0.00 | 0.00 | 34 | 1008.4 |
| 20260503220123 | 60 | 44 | 7.0 | 11.0 | 0.00 | 0.00 | 0.00 | 33 | 1008.4 |
| 20260503215122 | 60 | 295 | 7.0 | 16.0 | 0.00 | 0.00 | 0.00 | 34 | 1008.5 |
| 20260503214123 | 61 | 299 | 8.0 | 17.0 | 0.00 | 0.00 | 0.00 | 34 | 1008.5 |
| 20260503213125 | 61 | 328 | 7.0 | 16.0 | 0.00 | 0.00 | 0.00 | 34 | 1008.2 |
| 20260503212121 | 62 | 277 | 7.0 | 19.0 | 0.00 | 0.00 | 0.00 | 33 | 1008.1 |
| 20260503211143 | 63 | 285 | 6.0 | 17.0 | 0.00 | 0.00 | 0.00 | 33 | 1008.1 |
| 20260503210121 | 63 | 289 | 7.0 | 13.0 | 0.00 | 0.00 | 0.00 | 33 | 1008.1 |
| 20260503205121 | 63 | 340 | 8.0 | 18.0 | 0.00 | 0.00 | 0.00 | 33 | 1008.2 |
| 20260503204122 | 63 | 316 | 7.0 | 14.0 | 0.00 | 0.00 | 0.00 | 32 | 1008.1 |
| 20260503203121 | 63 | 284 | 7.0 | 14.0 | 0.00 | 0.00 | 0.00 | 32 | 1008.2 |
| 20260503202121 | 63 | 292 | 7.0 | 14.0 | 0.00 | 0.00 | 0.00 | 33 | 1008.4 |
| 20260503201121 | 62 | 300 | 10.0 | 18.0 | 0.00 | 0.00 | 0.00 | 34 | 1008.4 |
| 20260503200142 | 62 | 322 | 7.0 | 12.0 | 0.00 | 0.00 | 0.00 | 34 | 1008.2 |
| 20260503195142 | 63 | 291 | 9.0 | 18.0 | 0.00 | 0.00 | 0.00 | 34 | 1008.2 |
| 20260503194122 | 64 | 295 | 6.0 | 12.0 | 0.00 | 0.00 | 0.00 | 34 | 1008.5 |
| 20260503193121 | 63 | 267 | 6.0 | 12.0 | 0.00 | 0.00 | 0.00 | 35 | 1008.6 |
| 20260503192123 | 62 | 288 | 9.0 | 18.0 | 0.00 | 0.00 | 0.00 | 35 | 1008.8 |
| 20260503191121 | 61 | 295 | 7.0 | 12.0 | 0.00 | 0.00 | 0.00 | 36 | 1009.0 |
| 20260503190121 | 61 | 298 | 7.0 | 12.0 | 0.00 | 0.00 | 0.00 | 37 | 1009.0 |
| 20260503185126 | 60 | 299 | 6.0 | 12.0 | 0.00 | 0.00 | 0.00 | 38 | 1009.2 |
| 20260503185121 | 61 | 300 | 6.0 | 12.0 | 0.00 | 0.00 | 0.00 | 37 | 1009.2 |
| 20260503184123 | 59 | 307 | 7.0 | 13.0 | 0.00 | 0.00 | 0.00 | 40 | 1009.2 |
| 20260503183143 | 59 | 296 | 7.0 | 12.0 | 0.00 | 0.00 | 0.00 | 39 | 1009.4 |